This is the latest recevied weather packets stored in our database for station/object N4XWC. If no packets are shown the sender has not sent any weather packets the latest 10 day(s).
| Time | Temp. | Humidity | Pressure | Rain* | Wind** | Luminosity | Snow |
|---|---|---|---|---|---|---|---|
| 1777387335 | 18.89° C | 100% | 1020.3 hPa | 2.03 mm | - | - | - |
| 1777387039 | 18.89° C | 100% | 1020.3 hPa | 2.29 mm | - | - | - |
| 1777386735 | 18.89° C | 100% | 1020.3 hPa | 2.29 mm | - | - | - |
| 1777386438 | 18.89° C | 100% | 1019.8 hPa | 2.54 mm | - | - | - |
| 1777386135 | 18.89° C | 100% | 1019.8 hPa | 2.29 mm | - | - | - |
| 1777385838 | 18.89° C | 100% | 1019.8 hPa | 2.54 mm | - | - | - |
| 1777385618 | 18.89° C | 100% | 1020.2 hPa | 2.29 mm | - | - | - |
| 1777385535 | 18.89° C | 100% | 1020.2 hPa | 2.29 mm | - | - | - |
| 1777385238 | 18.89° C | 100% | 1020.2 hPa | 2.03 mm | - | - | - |
| 1777385045 | 18.89° C | 100% | 1020.2 hPa | 1.78 mm | - | - | - |
| 1777384936 | 18.89° C | 100% | 1020.2 hPa | 1.78 mm | - | - | - |
| 1777384637 | 18.89° C | 100% | 1019.9 hPa | 1.52 mm | - | - | - |
| 1777384334 | 18.89° C | 100% | 1019.9 hPa | 1.27 mm | - | - | - |
| 1777384037 | 18.89° C | 100% | 1019.9 hPa | 1.02 mm | - | - | - |
| 1777383800 | 18.89° C | 100% | 1019.8 hPa | 1.02 mm | - | - | - |
| 1777383735 | 18.89° C | 100% | 1019.8 hPa | 1.02 mm | - | - | - |
| 1777383438 | 18.89° C | 100% | 1019.8 hPa | 0.51 mm | - | - | - |
| 1777383218 | 18.89° C | 100% | 1019.8 hPa | 0.51 mm | - | - | - |
| 1777383134 | 18.89° C | 100% | 1019.8 hPa | 0.51 mm | - | - | - |
| 1777382837 | 18.89° C | 100% | 1019.8 hPa | 0.51 mm | - | - | - |
| 1777382534 | 18.89° C | 100% | 1019.8 hPa | 0.51 mm | - | - | - |
| 1777382239 | 18.89° C | 100% | 1019.8 hPa | 0.51 mm | - | - | - |
| 1777381962 | 18.89° C | 100% | 1019.7 hPa | 0.25 mm | - | - | - |
| 1777381934 | 18.89° C | 100% | 1019.7 hPa | 0.25 mm | - | - | - |
| 1777381637 | 18.89° C | 100% | 1019.7 hPa | 0.25 mm | - | - | - |
* Rain latest hour (hover to see other rain measurements)
** Current wind speed in m/s (hover to see current wind gust speed)